[[{"header":{"parameterUnit":"m.s-1","parameterCategory":1,"la1":30.2991,"la2":30.254,"lo1":-89.0895,"lo2":-89.0444,"dy":0.0017,"dx":0.0017,"nx":28,"ny":28,"refTime":"2024-05-07T21:00:00:Z","depth":0,"parameterNumber":2,"parameterNumberName":"U-component_of_WINDS"},"data":[0,0,0,0,0,0,0,0,0,0,0,0,0,0,0,0,0,0,0,0,0,0,0,0,0,0,0,0,0,0,0,0,0,0,0,0,0,0,0,0,0,0,0,0,0,0,0,0,0,0,0,0,0,0,0,0,0,0,-2.0265,-2.0266,0,-2.0336,-2.0337,-2.0338,-2.0338,-2.0337,-2.0336,-2.0335,-2.0412,-2.0415,-2.0418,0,0,0,0,0,0,0,0,0,0,0,0,0,-2.0135,-2.0138,-2.0265,-2.0266,-2.0267,-2.0336,-2.0337,-2.0338,-2.0338,-2.0337,-2.0336,-2.0335,-2.0411,-2.0415,-2.0418,0,0,0,0,0,0,0,0,0,0,0,0,0,-2.0197,-2.0138,-2.0265,-2.0275,-2.0277,-2.0336,-2.0337,-2.0338,-2.0339,-2.0337,-2.0336,-2.0334,-2.041,-2.0414,-2.0419,-2.0473,0,0,-2.0432,-2.0434,0,0,0,0,0,0,0,0,-2.0194,-2.0202,-2.0273,-2.0275,-2.0277,-2.0327,-2.0319,-2.0383,-2.0339,-2.0315,-2.0335,-2.0334,-2.0385,-2.0391,-2.0408,-2.0476,-2.048,-2.0432,-2.0435,-2.0437,-2.0438,0,0,0,0,0,0,0,-2.019,-2.0199,-2.0293,-2.0274,-2.0276,-2.0278,-2.0285,-2.0331,-2.0357,-2.0317,-2.0317,-2.0326,-2.0386,-2.0404,-2.041,-2.0481,-2.0432,-2.0436,-2.0439,-2.044,-2.0599,-2.0601,0,0,0,0,0,0,-2.0183,-2.0196,-2.0291,-2.0295,-2.0231,-2.0281,-2.029,-2.0312,-2.0357,-2.0362,-2.0327,-2.0325,-2.0397,-2.0405,-2.0412,-2.048,-2.0437,-2.0441,-2.0443,-2.0598,-2.06,-2.0602,0,0,0,0,0,0,-2.018,-2.0191,-2.0288,-2.0246,-2.0258,-2.0285,-2.031,-2.0314,-2.0332,-2.0364,-2.0369,-2.034,-2.0396,-2.0406,-2.0458,-2.0482,-2.0443,-2.0447,-2.0596,-2.0598,-2.0601,-2.0614,0,0,0,0,0,0,-2.0176,-2.019,-2.021,-2.0246,-2.026,-2.0331,-2.0312,-2.0317,-2.0339,-2.0338,-2.0377,-2.0383,-2.0396,-2.0451,-2.0462,-2.0487,-2.045,-2.0594,-2.0597,-2.06,-2.0611,-2.0616,-2.0621,0,0,0,0,0,-2.0171,-2.0211,-2.021,-2.0222,-2.0285,-2.0332,-2.0341,-2.0354,-2.0341,-2.0362,-2.0382,-2.0381,-2.0478,-2.0457,-2.0469,-2.0496,-2.0592,-2.0596,-2.06,-2.0609,-2.0615,-2.0621,0,0,0,0,0,0,-2.0178,-2.0216,-2.0216,-2.0268,-2.0297,-2.0332,-2.0358,-2.036,-2.0394,-2.0391,-2.0408,-2.0417,-2.0468,-2.0488,-2.0463,-2.0552,-2.0534,-2.054,-2.0537,-2.0543,-2.0548,-2.0542,-2.0454,0,0,0,0,0,-2.0185,-2.0219,-2.0251,-2.0294,-2.0308,-2.0331,-2.0352,-2.036,-2.0391,-2.0403,-2.0428,-2.0459,-2.0497,-2.0521,-2.0557,-2.0615,-2.0624,-2.0639,-2.0644,-2.0648,-2.0653,-2.0686,-2.0693,-2.0614,-2.0614,-2.0613,0,0,-2.0201,-2.0226,-2.0247,-2.0296,-2.0319,-2.0355,-2.0341,-2.038,-2.0407,-2.041,-2.0459,-2.0479,-2.0515,-2.057,-2.0595,-2.0587,-2.0677,-2.0652,-2.0655,-2.0658,-2.069,-2.0698,-2.0704,-2.0616,-2.0616,-2.0615,0,0,-2.0249,-2.027,-2.0309,-2.0332,-2.0367,-2.0382,-2.0392,-2.0427,-2.044,-2.049,-2.0493,-2.0527,-2.0591,-2.0617,-2.0638,-2.0697,-2.0698,-2.0709,-2.0733,-2.0765,-2.0771,-2.0777,-2.0799,-2.0806,-2.0714,-2.0714,-2.0714,0,-2.0264,-2.0317,-2.0329,-2.0368,-2.039,-2.0393,-2.0434,-2.0456,-2.0502,-2.0518,-2.0508,-2.0589,-2.0614,-2.0675,-2.069,-2.0707,-2.072,-2.0704,-2.0769,-2.0775,-2.078,-2.0801,-2.0809,-2.0715,-2.0715,-2.0715,-2.0715,0,-2.0335,-2.0372,-2.0399,-2.0442,-2.0467,-2.0507,-2.0527,-2.0551,-2.0558,-2.0574,-2.0626,-2.0656,-2.0699,-2.0714,-2.0721,-2.0777,-2.0771,-2.0765,-2.0748,-2.0789,-2.0809,-2.0817,-2.0717,-2.0716,-2.0716,-2.0716,0,0,-2.0388,-2.0437,-2.0447,-2.0466,-2.0506,-2.0535,-2.0576,-2.0616,-2.0638,-2.067,-2.0705,-2.076,-2.0754,-2.0779,-2.0789,-2.0817,-2.0863,-2.0808,-2.0809,-2.0817,-2.0928,-2.0932,-2.0941,-2.0864,-2.0865,-2.0867,-2.0925,0,-2.044,-2.0509,-2.0522,-2.0583,-2.0618,-2.0623,-2.0658,-2.0687,-2.0704,-2.0738,-2.0758,-2.0796,-2.0786,-2.0801,-2.0829,-2.0851,-2.0885,-2.0847,-2.0898,-2.09,-2.0888,-2.0951,-2.0956,-2.1009,-2.0933,-2.0934,-2.0935,0,-2.0509,-2.0541,-2.0605,-2.0641,-2.0656,-2.0687,-2.0726,-2.0758,-2.0792,-2.0802,-2.083,-2.0837,-2.0882,-2.0862,-2.0924,-2.0898,-2.092,-2.0934,-2.0937,-2.0942,-2.0919,-2.0958,-2.1027,-2.1035,-2.0947,-2.0946,-2.0945,0,-2.0541,-2.0601,-2.0648,-2.0664,-2.0707,-2.0729,-2.0748,-2.078,-2.0804,-2.0839,-2.0855,-2.0895,-2.0917,-2.0949,-2.0967,-2.0951,-2.1028,-2.101,-2.104,-2.1039,-2.1055,-2.1054,-2.1128,-2.1069,-2.1069,-2.1069,-2.1069,0,-2.0598,-2.0637,-2.0663,-2.0691,-2.0736,-2.0752,-2.0797,-2.0816,-2.0845,-2.0879,-2.0886,-2.0918,-2.094,-2.0976,-2.0991,-2.104,-2.105,-2.1061,-2.1065,-2.1061,-2.1059,-2.1075,-2.1072,-2.1071,-2.1071,-2.107,-2.107,0,-2.0641,-2.066,-2.0711,-2.0747,-2.0757,-2.0788,-2.082,-2.0849,-2.0866,-2.0909,-2.0921,-2.0949,-2.0991,-2.1013,-2.1066,-2.1076,-2.1132,-2.1134,-2.112,-2.1122,-2.115,-2.1147,-2.1237,-2.125,-2.1182,-2.1183,-2.1183,0,-2.0676,-2.0706,-2.0745,-2.0767,-2.0787,-2.0823,-2.0847,-2.0864,-2.089,-2.0931,-2.0956,-2.0998,-2.1033,-2.1101,-2.1127,-2.1169,-2.1171,-2.12,-2.1178,-2.1173,-2.1172,-2.117,-2.1174,-2.1204,-2.1205,-2.1205,-2.1206,0,-2.0736,-2.0744,-2.0777,-2.0815,-2.0843,-2.0874,-2.0905,-2.0923,-2.0946,-2.0974,-2.1017,-2.1044,-2.1098,-2.1141,-2.1184,-2.1206,-2.121,-2.1212,-2.1221,-2.1217,-2.1209,-2.1214,-2.1131,-2.121,-2.121,-2.1209,-2.1209,-2.1209,-2.0777,-2.0804,-2.0836,-2.0874,-2.0898,-2.0926,-2.0956,-2.0976,-2.1012,-2.1056,-2.1065,-2.1111,-2.1145,-2.1204,-2.1227,-2.1264,-2.1258,-2.1271,-2.1275,-2.1278,-2.1279,-2.1203,-2.1272,-2.1272,-2.1272,-2.1272,-2.1272,0,-2.0838,-2.0858,-2.0893,-2.0934,-2.0965,-2.0964,-2.0998,-2.1024,-2.1064,-2.1095,-2.1129,-2.1179,-2.1221,-2.125,-2.1294,-2.1318,-2.1321,-2.1329,-2.1327,-2.1332,-2.1282,-2.127,-2.1325,-2.1325,-2.1325,-2.1325,-2.1325,-2.1325,-2.0873,-2.0919,-2.0931,-2.0991,-2.1011,-2.1055,-2.1074,-2.1101,-2.1126,-2.1181,-2.1215,-2.1234,-2.1265,-2.1311,-2.135,-2.1358,-2.1374,-2.1381,-2.1389,-2.1341,-2.1336,-2.133,-2.1319,-2.1384,-2.1384,-2.1437,-2.1437,-2.1438]},{"header":{"parameterUnit":"m.s-1","parameterCategory":1,"la1":30.2991,"la2":30.254,"lo1":-89.0895,"lo2":-89.0444,"dy":0.0017,"dx":0.0017,"nx":28,"ny":28,"refTime":"2024-05-07T21:00:00:Z","depth":0,"parameterNumber":3,"parameterNumberName":"V-component_of_WINDS"},"data":[0,0,0,0,0,0,0,0,0,0,0,0,0,0,0,0,0,0,0,0,0,0,0,0,0,0,0,0,0,0,0,0,0,0,0,0,0,0,0,0,0,0,0,0,0,0,0,0,0,0,0,0,0,0,0,0,0,0,5.9334,5.9335,0,5.9423,5.9424,5.9425,5.942,5.9419,5.9418,5.9416,5.9502,5.9505,5.9508,0,0,0,0,0,0,0,0,0,0,0,0,0,5.9156,5.9159,5.9334,5.9335,5.9336,5.9422,5.9424,5.9425,5.942,5.9419,5.9417,5.9416,5.9501,5.9505,5.9509,0,0,0,0,0,0,0,0,0,0,0,0,0,5.9238,5.916,5.9334,5.9344,5.9346,5.9422,5.9424,5.9425,5.9421,5.9419,5.9417,5.9415,5.9499,5.9504,5.9509,5.9579,0,0,5.9525,5.9527,0,0,0,0,0,0,0,0,5.9233,5.9244,5.9342,5.9344,5.9346,5.9409,5.9392,5.9476,5.9421,5.9392,5.9416,5.9414,5.9472,5.9479,5.95,5.9583,5.9586,5.9525,5.9529,5.9531,5.9532,0,0,0,0,0,0,0,5.9227,5.924,5.9369,5.9343,5.9346,5.9343,5.9353,5.9408,5.9441,5.9395,5.9395,5.9405,5.9473,5.9495,5.9502,5.9587,5.9525,5.953,5.9533,5.9535,5.9733,5.9735,0,0,0,0,0,0,5.922,5.9236,5.9366,5.9371,5.9284,5.9348,5.9359,5.939,5.9441,5.9447,5.9407,5.9405,5.9487,5.9496,5.9505,5.959,5.9531,5.9536,5.9539,5.973,5.9733,5.9735,0,0,0,0,0,0,5.9216,5.9232,5.9362,5.9304,5.932,5.9353,5.9389,5.9393,5.9415,5.945,5.9455,5.9424,5.9486,5.9497,5.9561,5.9593,5.9538,5.9543,5.9728,5.9731,5.9734,5.976,0,0,0,0,0,0,5.9211,5.923,5.9258,5.9304,5.9323,5.9419,5.9391,5.9396,5.9425,5.9423,5.9467,5.9473,5.9485,5.9553,5.9566,5.9599,5.9547,5.9725,5.9729,5.9733,5.9757,5.9764,5.977,0,0,0,0,0,5.9205,5.9261,5.926,5.9275,5.9359,5.942,5.9431,5.9446,5.9427,5.9455,5.9477,5.9471,5.9587,5.956,5.9574,5.9609,5.9723,5.9728,5.9733,5.9754,5.9763,5.977,0,0,0,0,0,0,5.9215,5.9267,5.9266,5.9339,5.9376,5.942,5.9455,5.9455,5.9496,5.9492,5.9507,5.9517,5.9581,5.9601,5.957,5.9679,5.9653,5.9661,5.9664,5.9672,5.9679,5.9673,5.9551,0,0,0,0,0,5.9226,5.9273,5.9315,5.9375,5.9394,5.9421,5.9449,5.9457,5.9495,5.951,5.9537,5.9572,5.9617,5.9646,5.9688,5.976,5.9769,5.9791,5.9798,5.9803,5.981,5.985,5.986,5.9751,5.9751,5.9751,0,0,5.9248,5.9283,5.9311,5.9378,5.9408,5.9455,5.9434,5.9485,5.952,5.9517,5.9579,5.96,5.9641,5.9709,5.974,5.9728,5.9842,5.9809,5.9813,5.9817,5.9856,5.9866,5.9875,5.9755,5.9754,5.9754,0,0,5.9314,5.9345,5.9399,5.9429,5.9475,5.9493,5.9506,5.9551,5.9565,5.9629,5.9628,5.9669,5.9745,5.9774,5.9799,5.9877,5.9873,5.989,5.9926,5.9964,5.9973,5.9981,6.0009,6.0019,5.9897,5.9897,5.9897,0,5.9336,5.9409,5.9426,5.9478,5.9507,5.9509,5.9563,5.9591,5.9647,5.9667,5.9653,5.975,5.9777,5.9852,5.9872,5.9892,5.9906,5.9885,5.9971,5.9979,5.9986,6.0013,6.0023,5.9899,5.9899,5.9898,5.9898,0,5.9434,5.9484,5.9522,5.958,5.9613,5.9666,5.9689,5.9721,5.9727,5.9746,5.981,5.9843,5.9893,5.9912,5.9917,5.9988,5.9979,5.9968,5.9941,5.9998,6.0024,6.0034,5.9902,5.9901,5.99,5.99,0,0,5.9507,5.9575,5.9588,5.9615,5.9666,5.9705,5.9757,5.9808,5.9835,5.9874,5.9918,5.9983,5.9974,6.0002,6.001,6.0044,6.0105,6.0029,6.003,6.0042,6.0186,6.0194,6.0206,6.0103,6.0105,6.0106,6.0182,0,5.9579,5.9674,5.9691,5.9774,5.9821,5.9824,5.9869,5.9905,5.9924,5.9966,5.9987,6.0033,6.0017,6.0034,6.0068,6.009,6.0134,6.0085,6.0143,6.0145,6.0133,6.0219,6.0228,6.0299,6.0192,6.0194,6.0195,0,5.9674,5.9719,5.9807,5.9853,5.9873,5.9914,5.9963,6.0003,6.0043,6.0055,6.0087,6.0092,6.0146,6.0117,6.0191,6.0157,6.0182,6.0197,6.02,6.0206,6.0173,6.0228,6.0321,6.0332,6.0211,6.021,6.0209,0,5.972,5.9801,5.9865,5.9887,5.9942,5.9971,5.9995,6.0034,6.0063,6.0105,6.0125,6.0171,6.0197,6.0232,6.0249,6.0227,6.0322,6.0295,6.0333,6.0332,6.0352,6.0351,6.0452,6.0368,6.0368,6.0368,6.0367,0,5.9798,5.9852,5.9886,5.9925,5.9986,6.0004,6.0063,6.0086,6.012,6.0163,6.0167,6.0207,6.0227,6.0269,6.0282,6.0342,6.0353,6.0363,6.0366,6.0363,6.0362,6.0379,6.0375,6.0371,6.037,6.0369,6.0369,0,5.9859,5.9884,5.9954,6.0001,6.0014,6.0057,6.0096,6.0134,6.0153,6.0207,6.0221,6.0251,6.0302,6.0322,6.0383,6.0392,6.046,6.0459,6.0447,6.0448,6.0485,6.0481,6.06,6.0617,6.0522,6.0523,6.0524,0,5.9907,5.9949,6.0002,6.0032,6.0057,6.0105,6.0136,6.0156,6.0188,6.0238,6.0269,6.032,6.0361,6.0441,6.0468,6.0514,6.0514,6.0553,6.0521,6.0517,6.0515,6.0513,6.0517,6.0559,6.056,6.056,6.0561,0,5.9991,6.0001,6.0047,6.0098,6.0136,6.0176,6.0215,6.0239,6.0265,6.03,6.0353,6.0385,6.0449,6.0499,6.0547,6.057,6.057,6.0571,6.0582,6.058,6.0571,6.0577,6.0464,6.0568,6.0567,6.0567,6.0566,6.0566,6.0047,6.0085,6.0128,6.0179,6.0211,6.0248,6.0286,6.0312,6.0357,6.0411,6.0419,6.0476,6.0515,6.058,6.0605,6.0648,6.0638,6.0655,6.0659,6.0663,6.0665,6.0565,6.0657,6.0657,6.0657,6.0657,6.0657,0,6.0131,6.016,6.0206,6.0262,6.0303,6.0301,6.0344,6.0377,6.0428,6.0465,6.0507,6.0567,6.0616,6.0647,6.0696,6.0725,6.0726,6.0737,6.0735,6.074,6.0671,6.0657,6.0735,6.0735,6.0735,6.0735,6.0735,6.0735,6.018,6.0244,6.026,6.034,6.0367,6.0424,6.0449,6.0483,6.0513,6.0581,6.0622,6.0643,6.0678,6.073,6.0774,6.0782,6.08,6.0812,6.0819,6.0753,6.0745,6.0737,6.0724,6.0815,6.0815,6.0884,6.0885,6.0885]}]]